Regional Weather Roundup
Issued by NWS

Home | Current Version | Previous Version | Text Only | Print | Product List | Glossary On
Versions: 1 2 3 4 5 6 7 8 9 10 11 12 13 14 15 16 17 18 19 20 21 22 23 24 25 26 27 28 29 30 31 32 33 34 35 36 37 38 39 40 41 42 43 44 45 46 47 48 49 50
000
ASUS43 KBIS 212210
RWRND

NORTH DAKOTA REGIONAL WEATHER ROUNDUP
NATIONAL WEATHER SERVICE BISMARCK ND
500 PM CDT THU AUG 21 2014

NOTE: "FAIR" INDICATES FEW OR NO CLOUDS BELOW 12,000 FEET WITH NO
SIGNIFICANT WEATHER AND/OR OBSTRUCTIONS TO VISIBILITY.


NDZ001>003-009>011-017-212300-
NORTHWEST NORTH DAKOTA

CITY           SKY/WX    TMP DP  RH WIND       PRES   REMARKS
WILLISTON      CLOUDY    73  57  57 N7        29.96S
MINOT          PTSUNNY   79  61  53 NW12      29.88S
MINOT AFB      MOSUNNY   76  64  65 N10       29.88S
$$

NDZ018>021-031>035-040>046-212300-
SOUTHWEST NORTH DAKOTA

CITY           SKY/WX    TMP DP  RH WIND       PRES   REMARKS
BISMARCK       SUNNY     83  62  49 NW12      29.89R
DICKINSON      MOSUNNY   78  59  51 NW7       29.94R
GARRISON         N/A     78  62  57 N10       29.90S
HETTINGER ARPT SUNNY     82  55  39 NW6       29.94S
$$

NDZ004>008-012>016-024-026-027-054-212300-
NORTHEAST NORTH DAKOTA

CITY           SKY/WX    TMP DP  RH WIND       PRES   REMARKS
GRAND FORKS    PTSUNNY   78  68  71 CALM      29.80R
GRND FRKS AFB  MOSUNNY   77  70  81 E3        29.82R
DEVILS LAKE    MOSUNNY   79  66  65 NW9       29.82R
$$

NDZ022-023-025-028>030-036>039-047>053-212300-
SOUTHEAST NORTH DAKOTA

CITY           SKY/WX    TMP DP  RH WIND       PRES   REMARKS
FARGO          LGT RAIN  74  70  87 NE6       29.81R
JAMESTOWN      PTSUNNY   80  68  66 NW13      29.83R
$$



USA.gov is the U.S. government's official web portal to all federal, state and local government web resources and services.